contact:dominique.lefevre@mio.osupytheas.fr, maurice.libes@osupytheas.fr, didier.mallarino@osupytheas.fr
Project:EMSO http://www.emso-fr.org/EMSO-France
Depth: 2436.0 m
Title:EMSO Ligure Ouest : Data MII capteur CSTAR
DateTime,Latitude,Longitude,Instrument_Serial,Reference_Counts,Signal_Counts,Corrected_Signal_raw_counts,Calculated_Beam_c_inverse_meters,Internal_thermistor_counts
DateTime,Latitude,Longitude,Instrument_Serial,Reference_Counts,Signal_Counts,Corrected_Signal_raw_counts,Calculated_Beam_c_inverse_meters,Internal_thermistor_counts
2020-04-13T00:01:15,42.805,6.029,CST-1368DR,6474,9073,15188,0.111,551
2020-04-13T00:04:17,42.805,6.029,CST-1368DR,6474,9073,15188,0.111,551
2020-04-13T00:07:19,42.805,6.029,CST-1368DR,6474,9073,15189,0.111,551
2020-04-13T00:10:20,42.805,6.029,CST-1368DR,6474,9073,15188,0.111,551
2020-04-13T00:13:22,42.805,6.029,CST-1368DR,6474,9073,15188,0.111,551
2020-04-13T00:16:24,42.805,6.029,CST-1368DR,6474,9073,15189,0.111,551
2020-04-13T00:19:26,42.805,6.029,CST-1368DR,6474,9072,15187,0.111,551
2020-04-13T00:22:27,42.805,6.029,CST-1368DR,6474,9072,15186,0.112,551
2020-04-13T00:25:29,42.805,6.029,CST-1368DR,6474,9073,15189,0.111,551
2020-04-13T00:28:31,42.805,6.029,CST-1368DR,6474,9071,15184,0.112,551
2020-04-13T00:31:32,42.805,6.029,CST-1368DR,6474,9073,15188,0.111,551
2020-04-13T00:34:34,42.805,6.029,CST-1368DR,6474,9073,15189,0.111,551
2020-04-13T00:37:36,42.805,6.029,CST-1368DR,6474,9074,15189,0.111,551
2020-04-13T00:40:38,42.805,6.029,CST-1368DR,6474,9072,15187,0.111,551
2020-04-13T00:43:39,42.805,6.029,CST-1368DR,6474,9074,15189,0.111,551
2020-04-13T00:46:41,42.805,6.029,CST-1368DR,6474,9073,15187,0.111,551
2020-04-13T00:49:43,42.805,6.029,CST-1368DR,6474,9072,15187,0.111,551
2020-04-13T00:52:44,42.805,6.029,CST-1368DR,6474,9073,15187,0.111,551
2020-04-13T00:55:46,42.805,6.029,CST-1368DR,6474,9073,15187,0.111,551
2020-04-13T00:58:48,42.805,6.029,CST-1368DR,6474,9073,15189,0.111,551
2020-04-13T01:01:49,42.805,6.029,CST-1368DR,6474,9073,15188,0.111,551
2020-04-13T01:04:51,42.805,6.029,CST-1368DR,6474,9074,15189,0.111,551
2020-04-13T01:07:53,42.805,6.029,CST-1368DR,6474,9073,15188,0.111,551
2020-04-13T01:10:54,42.805,6.029,CST-1368DR,6474,9073,15188,0.111,551
2020-04-13T01:13:56,42.805,6.029,CST-1368DR,6474,9072,15186,0.112,551
2020-04-13T01:16:58,42.805,6.029,CST-1368DR,6474,9073,15187,0.111,551
2020-04-13T01:19:59,42.805,6.029,CST-1368DR,6474,9072,15187,0.111,551
2020-04-13T01:23:01,42.805,6.029,CST-1368DR,6474,9072,15186,0.112,551
2020-04-13T01:26:03,42.805,6.029,CST-1368DR,6474,9073,15188,0.111,551
2020-04-13T01:29:04,42.805,6.029,CST-1368DR,6474,9072,15186,0.112,551
2020-04-13T01:32:06,42.805,6.029,CST-1368DR,6474,9073,15188,0.111,551
2020-04-13T01:35:08,42.805,6.029,CST-1368DR,6474,9074,15190,0.111,551
2020-04-13T01:38:10,42.805,6.029,CST-1368DR,6474,9073,15188,0.111,551
2020-04-13T01:41:11,42.805,6.029,CST-1368DR,6474,9074,15189,0.111,551
2020-04-13T01:44:13,42.805,6.029,CST-1368DR,6474,9074,15189,0.111,551
2020-04-13T01:47:15,42.805,6.029,CST-1368DR,6474,9072,15186,0.112,551
2020-04-13T01:50:16,42.805,6.029,CST-1368DR,6474,9072,15186,0.112,551
2020-04-13T01:53:18,42.805,6.029,CST-1368DR,6474,9073,15187,0.111,551
2020-04-13T01:56:20,42.805,6.029,CST-1368DR,6474,9073,15188,0.111,551
2020-04-13T01:59:21,42.805,6.029,CST-1368DR,6474,9073,15187,0.111,551
2020-04-13T02:02:23,42.805,6.029,CST-1368DR,6474,9073,15188,0.111,550
2020-04-13T02:05:25,42.805,6.029,CST-1368DR,6474,9073,15189,0.111,551
2020-04-13T02:08:27,42.805,6.029,CST-1368DR,6474,9073,15187,0.111,551
2020-04-13T02:11:29,42.805,6.029,CST-1368DR,6474,9073,15188,0.111,551
2020-04-13T02:14:30,42.805,6.029,CST-1368DR,6474,9073,15188,0.111,551
2020-04-13T02:17:32,42.805,6.029,CST-1368DR,6474,9072,15186,0.112,551
2020-04-13T02:20:34,42.805,6.029,CST-1368DR,6474,9072,15187,0.111,551
2020-04-13T02:23:35,42.805,6.029,CST-1368DR,6474,9073,15187,0.111,551
2020-04-13T02:26:37,42.805,6.029,CST-1368DR,6474,9073,15188,0.111,551
2020-04-13T02:29:39,42.805,6.029,CST-1368DR,6474,9073,15188,0.111,551
2020-04-13T02:32:40,42.805,6.029,CST-1368DR,6474,9074,15189,0.111,551
2020-04-13T02:35:42,42.805,6.029,CST-1368DR,6474,9073,15188,0.111,551
2020-04-13T02:38:44,42.805,6.029,CST-1368DR,6474,9074,15190,0.111,551
2020-04-13T02:41:45,42.805,6.029,CST-1368DR,6474,9073,15188,0.111,551
2020-04-13T02:44:47,42.805,6.029,CST-1368DR,6474,9073,15189,0.111,551
2020-04-13T02:47:49,42.805,6.029,CST-1368DR,6474,9072,15187,0.111,551
2020-04-13T02:50:51,42.805,6.029,CST-1368DR,6474,9073,15188,0.111,551
2020-04-13T02:53:52,42.805,6.029,CST-1368DR,6474,9073,15188,0.111,551
2020-04-13T02:56:54,42.805,6.029,CST-1368DR,6474,9074,15189,0.111,551
2020-04-13T02:59:56,42.805,6.029,CST-1368DR,6474,9070,15183,0.112,551
2020-04-13T03:02:57,42.805,6.029,CST-1368DR,6474,9074,15189,0.111,551
2020-04-13T03:05:59,42.805,6.029,CST-1368DR,6474,9073,15189,0.111,551
2020-04-13T03:09:01,42.805,6.029,CST-1368DR,6474,9072,15186,0.112,551
2020-04-13T03:12:02,42.805,6.029,CST-1368DR,6474,9073,15188,0.111,551
2020-04-13T03:15:04,42.805,6.029,CST-1368DR,6474,9073,15188,0.111,551
2020-04-13T03:18:06,42.805,6.029,CST-1368DR,6474,9073,15188,0.111,551
2020-04-13T03:21:07,42.805,6.029,CST-1368DR,6474,9074,15190,0.111,551
2020-04-13T03:24:09,42.805,6.029,CST-1368DR,6474,9072,15187,0.111,551
2020-04-13T03:27:11,42.805,6.029,CST-1368DR,6473,9073,15190,0.111,551
2020-04-13T03:30:13,42.805,6.029,CST-1368DR,6474,9073,15187,0.111,551
2020-04-13T03:33:15,42.805,6.029,CST-1368DR,6474,9074,15189,0.111,551
2020-04-13T03:36:16,42.805,6.029,CST-1368DR,6474,9072,15187,0.111,551
2020-04-13T03:39:18,42.805,6.029,CST-1368DR,6473,9072,15188,0.111,551
2020-04-13T03:42:20,42.805,6.029,CST-1368DR,6474,9074,15189,0.111,551
2020-04-13T03:45:22,42.805,6.029,CST-1368DR,6473,9073,15190,0.111,551
2020-04-13T03:48:23,42.805,6.029,CST-1368DR,6473,9074,15192,0.110,551
2020-04-13T03:51:25,42.805,6.029,CST-1368DR,6473,9073,15190,0.111,551
2020-04-13T03:54:27,42.805,6.029,CST-1368DR,6473,9073,15190,0.111,551
2020-04-13T03:57:28,42.805,6.029,CST-1368DR,6474,9072,15187,0.111,551
2020-04-13T04:00:30,42.805,6.029,CST-1368DR,6474,9074,15189,0.111,551
2020-04-13T04:03:32,42.805,6.029,CST-1368DR,6473,9073,15190,0.111,551
2020-04-13T04:06:34,42.805,6.029,CST-1368DR,6473,9073,15190,0.111,551
2020-04-13T04:09:35,42.805,6.029,CST-1368DR,6473,9073,15190,0.111,551
2020-04-13T04:12:37,42.805,6.029,CST-1368DR,6473,9073,15190,0.111,551
2020-04-13T04:15:39,42.805,6.029,CST-1368DR,6473,9071,15187,0.111,551
2020-04-13T04:18:40,42.805,6.029,CST-1368DR,6473,9073,15190,0.111,551
2020-04-13T04:21:42,42.805,6.029,CST-1368DR,6473,9073,15190,0.111,551
2020-04-13T04:24:44,42.805,6.029,CST-1368DR,6473,9073,15191,0.110,551
2020-04-13T04:27:45,42.805,6.029,CST-1368DR,6473,9072,15188,0.111,551
2020-04-13T04:30:47,42.805,6.029,CST-1368DR,6473,9073,15190,0.111,551
2020-04-13T04:33:49,42.805,6.029,CST-1368DR,6473,9073,15190,0.111,551
2020-04-13T04:36:51,42.805,6.029,CST-1368DR,6473,9071,15187,0.111,551
2020-04-13T04:39:52,42.805,6.029,CST-1368DR,6473,9073,15190,0.111,551
2020-04-13T04:42:54,42.805,6.029,CST-1368DR,6473,9073,15190,0.111,551
2020-04-13T04:45:56,42.805,6.029,CST-1368DR,6473,9073,15190,0.111,551
2020-04-13T04:48:58,42.805,6.029,CST-1368DR,6473,9072,15189,0.111,551
2020-04-13T04:51:59,42.805,6.029,CST-1368DR,6473,9073,15190,0.111,551
2020-04-13T04:55:01,42.805,6.029,CST-1368DR,6473,9072,15189,0.111,551
2020-04-13T04:58:03,42.805,6.029,CST-1368DR,6473,9072,15188,0.111,551
2020-04-13T05:01:04,42.805,6.029,CST-1368DR,6473,9071,15187,0.111,551
2020-04-13T05:04:06,42.805,6.029,CST-1368DR,6473,9072,15189,0.111,551
2020-04-13T05:07:08,42.805,6.029,CST-1368DR,6473,9073,15190,0.111,551
2020-04-13T05:10:09,42.805,6.029,CST-1368DR,6473,9072,15188,0.111,551
2020-04-13T05:13:11,42.805,6.029,CST-1368DR,6473,9073,15190,0.111,551
2020-04-13T05:16:13,42.805,6.029,CST-1368DR,6473,9072,15188,0.111,551
2020-04-13T05:19:14,42.805,6.029,CST-1368DR,6473,9072,15188,0.111,551
2020-04-13T05:22:16,42.805,6.029,CST-1368DR,6473,9073,15190,0.111,551
2020-04-13T05:25:18,42.805,6.029,CST-1368DR,6473,9071,15187,0.111,551
2020-04-13T05:28:20,42.805,6.029,CST-1368DR,6473,9072,15189,0.111,551
2020-04-13T05:31:22,42.805,6.029,CST-1368DR,6473,9073,15190,0.111,551
2020-04-13T05:34:23,42.805,6.029,CST-1368DR,6473,9072,15189,0.111,550
2020-04-13T05:37:25,42.805,6.029,CST-1368DR,6473,9073,15191,0.110,551
2020-04-13T05:40:27,42.805,6.029,CST-1368DR,6473,9071,15187,0.111,551
2020-04-13T05:43:28,42.805,6.029,CST-1368DR,6473,9070,15185,0.112,551
2020-04-13T05:46:30,42.805,6.029,CST-1368DR,6473,9073,15190,0.111,551
2020-04-13T05:49:32,42.805,6.029,CST-1368DR,6473,9072,15189,0.111,551
2020-04-13T05:52:33,42.805,6.029,CST-1368DR,6473,9073,15190,0.111,551
2020-04-13T05:55:35,42.805,6.029,CST-1368DR,6473,9072,15189,0.111,551
2020-04-13T05:58:37,42.805,6.029,CST-1368DR,6473,9073,15190,0.111,551
2020-04-13T06:01:39,42.805,6.029,CST-1368DR,6473,9072,15189,0.111,551
2020-04-13T06:04:40,42.805,6.029,CST-1368DR,6473,9072,15189,0.111,551
2020-04-13T06:07:42,42.805,6.029,CST-1368DR,6473,9072,15188,0.111,551
2020-04-13T06:10:44,42.805,6.029,CST-1368DR,6473,9072,15188,0.111,551
2020-04-13T06:13:46,42.805,6.029,CST-1368DR,6473,9072,15189,0.111,551
2020-04-13T06:16:47,42.805,6.029,CST-1368DR,6473,9072,15188,0.111,551
2020-04-13T06:19:49,42.805,6.029,CST-1368DR,6473,9072,15189,0.111,551
2020-04-13T06:22:51,42.805,6.029,CST-1368DR,6473,9072,15188,0.111,551
2020-04-13T06:25:52,42.805,6.029,CST-1368DR,6473,9072,15189,0.111,551
2020-04-13T06:28:54,42.805,6.029,CST-1368DR,6473,9072,15189,0.111,551
2020-04-13T06:31:56,42.805,6.029,CST-1368DR,6473,9072,15188,0.111,551
2020-04-13T06:34:57,42.805,6.029,CST-1368DR,6473,9070,15185,0.112,551
2020-04-13T06:37:59,42.805,6.029,CST-1368DR,6473,9072,15188,0.111,551
2020-04-13T06:41:01,42.805,6.029,CST-1368DR,6473,9072,15189,0.111,551
2020-04-13T06:44:02,42.805,6.029,CST-1368DR,6473,9072,15188,0.111,551
2020-04-13T06:47:04,42.805,6.029,CST-1368DR,6473,9071,15186,0.112,551
2020-04-13T06:50:06,42.805,6.029,CST-1368DR,6473,9071,15187,0.111,551
2020-04-13T06:53:08,42.805,6.029,CST-1368DR,6473,9072,15188,0.111,551
2020-04-13T06:56:09,42.805,6.029,CST-1368DR,6473,9069,15184,0.112,551
2020-04-13T06:59:11,42.805,6.029,CST-1368DR,6473,9072,15189,0.111,551
2020-04-13T07:02:13,42.805,6.029,CST-1368DR,6473,9071,15187,0.111,551
2020-04-13T07:05:15,42.805,6.029,CST-1368DR,6473,9072,15188,0.111,551
2020-04-13T07:08:16,42.805,6.029,CST-1368DR,6473,9071,15187,0.111,550
2020-04-13T07:11:18,42.805,6.029,CST-1368DR,6473,9072,15189,0.111,551
2020-04-13T07:14:20,42.805,6.029,CST-1368DR,6473,9071,15186,0.112,551
2020-04-13T07:17:22,42.805,6.029,CST-1368DR,6473,9072,15189,0.111,551
2020-04-13T07:20:23,42.805,6.029,CST-1368DR,6473,9072,15188,0.111,551
2020-04-13T07:23:25,42.805,6.029,CST-1368DR,6473,9072,15188,0.111,551
2020-04-13T07:26:27,42.805,6.029,CST-1368DR,6473,9072,15188,0.111,551
2020-04-13T07:29:28,42.805,6.029,CST-1368DR,6473,9072,15188,0.111,551
2020-04-13T07:32:30,42.805,6.029,CST-1368DR,6473,9071,15187,0.111,551
2020-04-13T07:35:32,42.805,6.029,CST-1368DR,6473,9072,15189,0.111,551
2020-04-13T07:38:33,42.805,6.029,CST-1368DR,6473,9072,15188,0.111,551
2020-04-13T07:41:35,42.805,6.029,CST-1368DR,6473,9072,15188,0.111,551
2020-04-13T07:44:37,42.805,6.029,CST-1368DR,6473,9070,15186,0.112,551
2020-04-13T07:47:38,42.805,6.029,CST-1368DR,6473,9071,15186,0.112,551
2020-04-13T07:50:40,42.805,6.029,CST-1368DR,6473,9072,15188,0.111,551
2020-04-13T07:53:42,42.805,6.029,CST-1368DR,6473,9070,15185,0.112,551
2020-04-13T07:56:44,42.805,6.029,CST-1368DR,6473,9072,15189,0.111,551
2020-04-13T07:59:45,42.805,6.029,CST-1368DR,6473,9072,15188,0.111,551
2020-04-13T08:02:47,42.805,6.029,CST-1368DR,6473,9072,15188,0.111,551
2020-04-13T08:05:49,42.805,6.029,CST-1368DR,6473,9072,15188,0.111,551
2020-04-13T08:08:51,42.805,6.029,CST-1368DR,6473,9070,15186,0.112,551
2020-04-13T08:11:52,42.805,6.029,CST-1368DR,6473,9071,15187,0.111,551
2020-04-13T08:14:54,42.805,6.029,CST-1368DR,6473,9072,15188,0.111,551
2020-04-13T08:17:56,42.805,6.029,CST-1368DR,6473,9071,15187,0.111,551
2020-04-13T08:20:58,42.805,6.029,CST-1368DR,6473,9072,15188,0.111,551
2020-04-13T08:23:59,42.805,6.029,CST-1368DR,6473,9072,15189,0.111,551
2020-04-13T08:27:01,42.805,6.029,CST-1368DR,6473,9071,15186,0.112,551
2020-04-13T08:30:03,42.805,6.029,CST-1368DR,6473,9072,15188,0.111,550
2020-04-13T08:33:04,42.805,6.029,CST-1368DR,6473,9072,15188,0.111,551
2020-04-13T08:36:06,42.805,6.029,CST-1368DR,6473,9072,15189,0.111,551
2020-04-13T08:39:08,42.805,6.029,CST-1368DR,6473,9070,15186,0.112,551
2020-04-13T08:42:10,42.805,6.029,CST-1368DR,6473,9071,15187,0.111,551
2020-04-13T08:45:12,42.805,6.029,CST-1368DR,6473,9070,15185,0.112,551
2020-04-13T08:48:13,42.805,6.029,CST-1368DR,6473,9071,15187,0.111,551
2020-04-13T08:51:15,42.805,6.029,CST-1368DR,6473,9072,15189,0.111,551
2020-04-13T08:54:17,42.805,6.029,CST-1368DR,6473,9069,15184,0.112,551
2020-04-13T08:57:18,42.805,6.029,CST-1368DR,6472,9070,15188,0.111,551
2020-04-13T09:00:20,42.805,6.029,CST-1368DR,6473,9072,15188,0.111,551
2020-04-13T09:03:22,42.805,6.029,CST-1368DR,6472,9069,15185,0.112,551
2020-04-13T09:06:23,42.805,6.029,CST-1368DR,6472,9069,15186,0.112,551
2020-04-13T09:09:25,42.805,6.029,CST-1368DR,6472,9070,15188,0.111,551
2020-04-13T09:12:27,42.805,6.029,CST-1368DR,6472,9070,15188,0.111,551
2020-04-13T09:15:28,42.805,6.029,CST-1368DR,6472,9071,15189,0.111,551
2020-04-13T09:18:30,42.805,6.029,CST-1368DR,6472,9071,15189,0.111,551
2020-04-13T09:21:32,42.805,6.029,CST-1368DR,6472,9071,15189,0.111,551
2020-04-13T09:24:33,42.805,6.029,CST-1368DR,6472,9072,15190,0.111,551
2020-04-13T09:27:35,42.805,6.029,CST-1368DR,6472,9071,15188,0.111,551
2020-04-13T09:30:37,42.805,6.029,CST-1368DR,6472,9071,15188,0.111,551
2020-04-13T09:33:39,42.805,6.029,CST-1368DR,6472,9070,15188,0.111,551
2020-04-13T09:36:41,42.805,6.029,CST-1368DR,6472,9071,15188,0.111,551
2020-04-13T09:39:43,42.805,6.029,CST-1368DR,6472,9070,15187,0.111,551
2020-04-13T09:42:45,42.805,6.029,CST-1368DR,6472,9070,15187,0.111,551
2020-04-13T09:45:46,42.805,6.029,CST-1368DR,6472,9070,15188,0.111,551
2020-04-13T09:48:48,42.805,6.029,CST-1368DR,6472,9070,15187,0.111,551
2020-04-13T09:51:50,42.805,6.029,CST-1368DR,6472,9071,15189,0.111,551
2020-04-13T09:54:51,42.805,6.029,CST-1368DR,6472,9071,15189,0.111,551
2020-04-13T09:57:53,42.805,6.029,CST-1368DR,6472,9071,15188,0.111,551
2020-04-13T10:00:55,42.805,6.029,CST-1368DR,6472,9070,15188,0.111,551
2020-04-13T10:03:56,42.805,6.029,CST-1368DR,6472,9070,15188,0.111,551
2020-04-13T10:06:58,42.805,6.029,CST-1368DR,6472,9071,15189,0.111,551
2020-04-13T10:10:00,42.805,6.029,CST-1368DR,6472,9071,15189,0.111,551
2020-04-13T10:13:02,42.805,6.029,CST-1368DR,6472,9071,15188,0.111,551
2020-04-13T10:16:03,42.805,6.029,CST-1368DR,6472,9070,15188,0.111,551
2020-04-13T10:19:05,42.805,6.029,CST-1368DR,6472,9070,15188,0.111,551
2020-04-13T10:22:07,42.805,6.029,CST-1368DR,6472,9070,15188,0.111,551
2020-04-13T10:25:08,42.805,6.029,CST-1368DR,6472,9070,15188,0.111,551
2020-04-13T10:28:10,42.805,6.029,CST-1368DR,6472,9069,15186,0.112,551
2020-04-13T10:31:12,42.805,6.029,CST-1368DR,6472,9071,15188,0.111,551
2020-04-13T10:34:14,42.805,6.029,CST-1368DR,6472,9071,15188,0.111,551
2020-04-13T10:37:15,42.805,6.029,CST-1368DR,6472,9071,15188,0.111,551
2020-04-13T10:40:17,42.805,6.029,CST-1368DR,6472,9070,15187,0.111,551
2020-04-13T10:43:19,42.805,6.029,CST-1368DR,6472,9072,15190,0.111,551
2020-04-13T10:46:20,42.805,6.029,CST-1368DR,6472,9070,15188,0.111,551
2020-04-13T10:49:22,42.805,6.029,CST-1368DR,6472,9071,15188,0.111,551
2020-04-13T10:52:24,42.805,6.029,CST-1368DR,6472,9071,15189,0.111,551
2020-04-13T10:55:26,42.805,6.029,CST-1368DR,6472,9070,15188,0.111,551
2020-04-13T10:58:27,42.805,6.029,CST-1368DR,6472,9070,15187,0.111,551
2020-04-13T11:01:29,42.805,6.029,CST-1368DR,6472,9070,15187,0.111,551
2020-04-13T11:04:31,42.805,6.029,CST-1368DR,6472,9071,15188,0.111,551
2020-04-13T11:07:32,42.805,6.029,CST-1368DR,6472,9071,15188,0.111,551
2020-04-13T11:10:34,42.805,6.029,CST-1368DR,6472,9070,15188,0.111,551
2020-04-13T11:13:36,42.805,6.029,CST-1368DR,6472,9070,15188,0.111,551
2020-04-13T11:16:38,42.805,6.029,CST-1368DR,6472,9071,15188,0.111,551
2020-04-13T11:19:39,42.805,6.029,CST-1368DR,6472,9070,15188,0.111,551
2020-04-13T11:22:41,42.805,6.029,CST-1368DR,6472,9070,15188,0.111,551
2020-04-13T11:25:43,42.805,6.029,CST-1368DR,6472,9071,15189,0.111,551
2020-04-13T11:28:44,42.805,6.029,CST-1368DR,6472,9069,15186,0.112,551
2020-04-13T11:31:46,42.805,6.029,CST-1368DR,6472,9070,15188,0.111,551
2020-04-13T11:34:48,42.805,6.029,CST-1368DR,6472,9070,15188,0.111,551
2020-04-13T11:37:49,42.805,6.029,CST-1368DR,6472,9070,15188,0.111,551
2020-04-13T11:40:51,42.805,6.029,CST-1368DR,6472,9070,15187,0.111,551
2020-04-13T11:43:53,42.805,6.029,CST-1368DR,6472,9070,15187,0.111,551
2020-04-13T11:46:54,42.805,6.029,CST-1368DR,6472,9069,15185,0.112,551
2020-04-13T11:49:56,42.805,6.029,CST-1368DR,6472,9070,15188,0.111,551
2020-04-13T11:52:58,42.805,6.029,CST-1368DR,6472,9065,15180,0.113,551
2020-04-13T11:56:00,42.805,6.029,CST-1368DR,6472,9070,15188,0.111,551
2020-04-13T11:59:01,42.805,6.029,CST-1368DR,6472,9069,15185,0.112,551
2020-04-13T12:02:03,42.805,6.029,CST-1368DR,6472,9068,15183,0.112,551
2020-04-13T12:05:05,42.805,6.029,CST-1368DR,6472,9070,15188,0.111,551
2020-04-13T12:08:06,42.805,6.029,CST-1368DR,6472,9070,15187,0.111,550
2020-04-13T12:11:08,42.805,6.029,CST-1368DR,6472,9069,15186,0.112,551
2020-04-13T12:14:10,42.805,6.029,CST-1368DR,6472,9070,15187,0.111,551
2020-04-13T12:17:11,42.805,6.029,CST-1368DR,6472,9068,15184,0.112,551
2020-04-13T12:20:13,42.805,6.029,CST-1368DR,6472,9070,15187,0.111,551
2020-04-13T12:23:15,42.805,6.029,CST-1368DR,6472,9069,15186,0.112,551
2020-04-13T12:26:16,42.805,6.029,CST-1368DR,6472,9069,15186,0.112,551
2020-04-13T12:29:18,42.805,6.029,CST-1368DR,6472,9069,15186,0.112,551
2020-04-13T12:32:20,42.805,6.029,CST-1368DR,6472,9069,15185,0.112,551
2020-04-13T12:35:21,42.805,6.029,CST-1368DR,6472,9070,15188,0.111,551
2020-04-13T12:38:23,42.805,6.029,CST-1368DR,6472,9069,15186,0.112,551
2020-04-13T12:41:25,42.805,6.029,CST-1368DR,6472,9069,15186,0.112,551
2020-04-13T12:44:26,42.805,6.029,CST-1368DR,6472,9068,15184,0.112,551
2020-04-13T12:47:28,42.805,6.029,CST-1368DR,6472,9070,15187,0.111,551
2020-04-13T12:50:30,42.805,6.029,CST-1368DR,6472,9070,15187,0.111,551
2020-04-13T12:53:32,42.805,6.029,CST-1368DR,6472,9070,15187,0.111,551
2020-04-13T12:56:33,42.805,6.029,CST-1368DR,6472,9070,15187,0.111,550
2020-04-13T12:59:35,42.805,6.029,CST-1368DR,6472,9069,15186,0.112,551
2020-04-13T13:02:37,42.805,6.029,CST-1368DR,6472,9070,15187,0.111,551
2020-04-13T13:05:38,42.805,6.029,CST-1368DR,6472,9070,15188,0.111,551
2020-04-13T13:08:40,42.805,6.029,CST-1368DR,6472,9069,15185,0.112,551
2020-04-13T13:11:42,42.805,6.029,CST-1368DR,6472,9069,15186,0.112,551
2020-04-13T13:14:43,42.805,6.029,CST-1368DR,6472,9069,15186,0.112,551
2020-04-13T13:17:45,42.805,6.029,CST-1368DR,6472,9070,15187,0.111,551
2020-04-13T13:20:47,42.805,6.029,CST-1368DR,6472,9070,15188,0.111,551
2020-04-13T13:23:48,42.805,6.029,CST-1368DR,6472,9068,15185,0.112,551
2020-04-13T13:26:50,42.805,6.029,CST-1368DR,6471,9069,15188,0.111,551
2020-04-13T13:29:52,42.805,6.029,CST-1368DR,6471,9069,15188,0.111,551
2020-04-13T13:32:53,42.805,6.029,CST-1368DR,6471,9069,15188,0.111,551
2020-04-13T13:35:55,42.805,6.029,CST-1368DR,6471,9069,15188,0.111,551
2020-04-13T13:38:57,42.805,6.029,CST-1368DR,6471,9068,15187,0.111,551
2020-04-13T13:41:59,42.805,6.029,CST-1368DR,6471,9068,15187,0.111,551
2020-04-13T13:45:00,42.805,6.029,CST-1368DR,6471,9070,15189,0.111,551
2020-04-13T13:48:02,42.805,6.029,CST-1368DR,6471,9070,15189,0.111,551
2020-04-13T13:51:04,42.805,6.029,CST-1368DR,6471,9069,15188,0.111,551
2020-04-13T13:54:05,42.805,6.029,CST-1368DR,6471,9067,15185,0.112,551
2020-04-13T13:57:07,42.805,6.029,CST-1368DR,6471,9069,15188,0.111,551
2020-04-13T14:00:09,42.805,6.029,CST-1368DR,6471,9069,15188,0.111,551
2020-04-13T14:03:11,42.805,6.029,CST-1368DR,6471,9068,15187,0.111,551
2020-04-13T14:06:12,42.805,6.029,CST-1368DR,6471,9070,15189,0.111,551
2020-04-13T14:09:14,42.805,6.029,CST-1368DR,6471,9068,15186,0.112,551
2020-04-13T14:12:16,42.805,6.029,CST-1368DR,6471,9068,15186,0.112,551
2020-04-13T14:15:18,42.805,6.029,CST-1368DR,6471,9070,15189,0.111,551
2020-04-13T14:18:19,42.805,6.029,CST-1368DR,6471,9070,15189,0.111,551
2020-04-13T14:21:21,42.805,6.029,CST-1368DR,6471,9067,15185,0.112,551
2020-04-13T14:24:22,42.805,6.029,CST-1368DR,6471,9069,15188,0.111,551
2020-04-13T14:27:24,42.805,6.029,CST-1368DR,6471,9070,15189,0.111,551
2020-04-13T14:30:26,42.805,6.029,CST-1368DR,6471,9068,15186,0.112,550
2020-04-13T14:33:28,42.805,6.029,CST-1368DR,6471,9069,15188,0.111,551
2020-04-13T14:36:29,42.805,6.029,CST-1368DR,6471,9068,15187,0.111,551
2020-04-13T14:39:31,42.805,6.029,CST-1368DR,6471,9069,15188,0.111,551
2020-04-13T14:42:33,42.805,6.029,CST-1368DR,6471,9069,15188,0.111,551
2020-04-13T14:45:34,42.805,6.029,CST-1368DR,6471,9069,15188,0.111,551
2020-04-13T14:48:36,42.805,6.029,CST-1368DR,6471,9069,15188,0.111,551
2020-04-13T14:51:38,42.805,6.029,CST-1368DR,6471,9069,15188,0.111,551
2020-04-13T14:54:39,42.805,6.029,CST-1368DR,6471,9069,15187,0.111,551
2020-04-13T14:57:41,42.805,6.029,CST-1368DR,6471,9068,15186,0.112,551
2020-04-13T15:00:43,42.805,6.029,CST-1368DR,6471,9068,15186,0.112,551
2020-04-13T15:03:44,42.805,6.029,CST-1368DR,6471,9068,15187,0.111,551
2020-04-13T15:06:46,42.805,6.029,CST-1368DR,6471,9069,15187,0.111,551
2020-04-13T15:09:48,42.805,6.029,CST-1368DR,6471,9069,15188,0.111,551
2020-04-13T15:12:49,42.805,6.029,CST-1368DR,6471,9069,15187,0.111,551
2020-04-13T15:15:51,42.805,6.029,CST-1368DR,6471,9069,15188,0.111,551
2020-04-13T15:18:53,42.805,6.029,CST-1368DR,6471,9069,15187,0.111,551
2020-04-13T15:21:54,42.805,6.029,CST-1368DR,6471,9069,15188,0.111,551
2020-04-13T15:24:56,42.805,6.029,CST-1368DR,6471,9068,15187,0.111,551
2020-04-13T15:27:58,42.805,6.029,CST-1368DR,6471,9069,15188,0.111,551
2020-04-13T15:31:00,42.805,6.029,CST-1368DR,6471,9069,15187,0.111,551
2020-04-13T15:34:01,42.805,6.029,CST-1368DR,6471,9068,15186,0.112,551
2020-04-13T15:37:03,42.805,6.029,CST-1368DR,6471,9069,15188,0.111,551
2020-04-13T15:40:04,42.805,6.029,CST-1368DR,6471,9069,15187,0.111,551
2020-04-13T15:43:06,42.805,6.029,CST-1368DR,6471,9068,15186,0.112,551
2020-04-13T15:46:08,42.805,6.029,CST-1368DR,6471,9068,15186,0.112,551
2020-04-13T15:49:09,42.805,6.029,CST-1368DR,6471,9068,15186,0.112,551
2020-04-13T15:52:11,42.805,6.029,CST-1368DR,6471,9067,15185,0.112,551
2020-04-13T15:55:13,42.805,6.029,CST-1368DR,6471,9067,15185,0.112,551
2020-04-13T15:58:14,42.805,6.029,CST-1368DR,6471,9069,15188,0.111,551
2020-04-13T16:01:16,42.805,6.029,CST-1368DR,6471,9069,15187,0.111,551
2020-04-13T16:04:18,42.805,6.029,CST-1368DR,6471,9067,15184,0.112,551
2020-04-13T16:07:19,42.805,6.029,CST-1368DR,6471,9069,15188,0.111,550
2020-04-13T16:10:21,42.805,6.029,CST-1368DR,6471,9067,15185,0.112,551
2020-04-13T16:13:23,42.805,6.029,CST-1368DR,6471,9068,15187,0.111,551
2020-04-13T16:16:25,42.805,6.029,CST-1368DR,6471,9068,15186,0.112,551
2020-04-13T16:19:26,42.805,6.029,CST-1368DR,6471,9069,15187,0.111,551
2020-04-13T16:22:28,42.805,6.029,CST-1368DR,6471,9068,15187,0.111,551
2020-04-13T16:25:30,42.805,6.029,CST-1368DR,6471,9068,15187,0.111,551
2020-04-13T16:28:31,42.805,6.029,CST-1368DR,6471,9069,15187,0.111,551
2020-04-13T16:31:33,42.805,6.029,CST-1368DR,6471,9069,15187,0.111,551
2020-04-13T16:34:35,42.805,6.029,CST-1368DR,6471,9067,15185,0.112,550
2020-04-13T16:37:36,42.805,6.029,CST-1368DR,6471,9068,15186,0.112,551
2020-04-13T16:40:38,42.805,6.029,CST-1368DR,6471,9067,15185,0.112,551
2020-04-13T16:43:40,42.805,6.029,CST-1368DR,6471,9067,15185,0.112,551
2020-04-13T16:46:41,42.805,6.029,CST-1368DR,6471,9068,15186,0.112,551
2020-04-13T16:49:43,42.805,6.029,CST-1368DR,6471,9068,15187,0.111,551
2020-04-13T16:52:45,42.805,6.029,CST-1368DR,6471,9068,15187,0.111,551